[[{"header":{"parameterUnit":"m.s-1","parameterCategory":1,"la1":30.2991,"la2":30.254,"lo1":-89.0895,"lo2":-89.0444,"dy":0.0017,"dx":0.0017,"nx":28,"ny":28,"refTime":"2024-12-09T09:00:00:Z","depth":0,"parameterNumber":2,"parameterNumberName":"U-component_of_WINDS"},"data":[0,0,0,0,0,0,0,0,0,0,0,0,0,0,0,0,0,0,0,0,0,0,0,0,0,0,0,0,0,0,0,0,0,0,0,0,0,0,0,0,0,0,0,0,0,0,0,0,0,0,0,0,0,0,0,0,0,0,2.3811,2.3812,0,2.3827,2.3827,2.3827,2.3778,2.3777,2.3775,2.3774,2.3792,2.3794,2.3796,0,0,0,0,0,0,0,0,0,0,0,0,0,2.3741,2.3742,2.3811,2.3812,2.3812,2.3827,2.3827,2.3827,2.3778,2.3777,2.3775,2.3773,2.3791,2.3794,2.3796,0,0,0,0,0,0,0,0,0,0,0,0,0,2.3765,2.3743,2.3811,2.3789,2.3787,2.3827,2.3827,2.3827,2.3779,2.3777,2.3774,2.3772,2.3791,2.3793,2.3796,2.3859,0,0,2.3805,2.3806,0,0,0,0,0,0,0,0,2.3764,2.3768,2.3792,2.3791,2.3789,2.3798,2.3809,2.3838,2.3779,2.3782,2.3774,2.3771,2.3796,2.3798,2.3806,2.3859,2.386,2.3805,2.3807,2.3808,2.3809,0,0,0,0,0,0,0,2.3762,2.3767,2.3818,2.3793,2.379,2.3779,2.378,2.3814,2.3802,2.3782,2.3778,2.3781,2.3795,2.3804,2.3806,2.386,2.3805,2.3807,2.3809,2.381,2.3965,2.3968,0,0,0,0,0,0,2.3763,2.3766,2.3817,2.3818,2.377,2.3782,2.3783,2.3798,2.3801,2.3799,2.3782,2.3778,2.38,2.3803,2.3807,2.388,2.3808,2.3811,2.3812,2.3963,2.3966,2.3969,0,0,0,0,0,0,2.3762,2.3768,2.3816,2.3791,2.3796,2.3785,2.3802,2.3799,2.3808,2.3802,2.3799,2.3794,2.3798,2.3803,2.3846,2.388,2.3812,2.3814,2.396,2.3964,2.3967,2.4028,0,0,0,0,0,0,2.376,2.3768,2.3792,2.3792,2.3798,2.3855,2.3804,2.3801,2.3813,2.3807,2.3812,2.381,2.3797,2.3842,2.3849,2.3883,2.3817,2.3957,2.3962,2.3966,2.4023,2.4033,2.4042,0,0,0,0,0,2.3758,2.3808,2.3793,2.3799,2.3827,2.3857,2.3861,2.3844,2.3816,2.3839,2.3835,2.381,2.3875,2.3847,2.3854,2.3889,2.3955,2.396,2.3966,2.4018,2.4031,2.4042,0,0,0,0,0,0,2.3813,2.3808,2.3791,2.3843,2.3851,2.3849,2.3878,2.3857,2.3874,2.3868,2.3847,2.3848,2.3895,2.3896,2.3865,2.395,2.391,2.3917,2.3948,2.396,2.3969,2.3968,2.3819,0,0,0,0,0,2.3832,2.3856,2.385,2.3897,2.3902,2.3889,2.3902,2.3888,2.3895,2.3899,2.3898,2.3907,2.3929,2.3944,2.3964,2.4022,2.4023,2.405,2.4059,2.4067,2.4074,2.4105,2.4117,2.3986,2.3986,2.3986,0,0,2.387,2.387,2.3887,2.3908,2.3913,2.3939,2.3893,2.3923,2.3942,2.3904,2.3944,2.3944,2.3952,2.4003,2.4025,2.4005,2.411,2.4074,2.4081,2.4083,2.4112,2.4124,2.4135,2.399,2.3989,2.3989,0,0,2.3953,2.3955,2.3995,2.4,2.4006,2.3998,2.4007,2.4008,2.4006,2.4046,2.4017,2.404,2.4079,2.4086,2.4095,2.418,2.4158,2.4187,2.4238,2.4268,2.4278,2.4287,2.4318,2.4329,2.4193,2.4193,2.4194,0,2.4,2.4039,2.4018,2.405,2.406,2.4025,2.4064,2.407,2.4084,2.4092,2.4069,2.4117,2.412,2.4172,2.4192,2.42,2.4211,2.4187,2.4278,2.4287,2.4295,2.4324,2.4336,2.4197,2.4197,2.4196,2.4196,0,2.4096,2.4123,2.4154,2.4167,2.4181,2.4216,2.4201,2.4217,2.4202,2.4196,2.4237,2.4239,2.4259,2.427,2.4255,2.432,2.4307,2.4282,2.4242,2.4312,2.4339,2.435,2.4202,2.4201,2.42,2.4199,0,0,2.4217,2.4216,2.4228,2.4234,2.4238,2.4259,2.4293,2.4311,2.4326,2.4336,2.4365,2.4397,2.4373,2.4383,2.4369,2.4395,2.4463,2.4366,2.4366,2.4385,2.4535,2.4555,2.4568,2.4448,2.445,2.4451,2.4534,0,2.4299,2.4357,2.4339,2.4397,2.4422,2.4389,2.4418,2.4424,2.4419,2.444,2.4434,2.4458,2.4424,2.443,2.4454,2.445,2.4493,2.4443,2.4475,2.4476,2.4475,2.4582,2.4604,2.4682,2.4545,2.4546,2.4548,0,2.4403,2.4417,2.4478,2.4478,2.4488,2.4515,2.453,2.455,2.4556,2.455,2.4561,2.4541,2.4574,2.4533,2.4579,2.4546,2.4557,2.4557,2.4559,2.4563,2.4517,2.459,2.4707,2.4719,2.4564,2.4563,2.4562,0,2.4486,2.4519,2.456,2.4566,2.4567,2.4586,2.4588,2.4591,2.4604,2.4617,2.4625,2.4642,2.4652,2.4666,2.4651,2.4622,2.47,2.4657,2.4697,2.4697,2.4716,2.4715,2.4838,2.4722,2.4721,2.4721,2.4721,0,2.4581,2.462,2.4597,2.4623,2.4665,2.4644,2.4687,2.4684,2.4687,2.4712,2.4683,2.4707,2.4686,2.4707,2.4696,2.4736,2.4741,2.4737,2.4734,2.4741,2.4741,2.4749,2.4744,2.4724,2.4724,2.4723,2.4723,0,2.4681,2.4668,2.471,2.4707,2.4707,2.4738,2.4736,2.4759,2.4751,2.4782,2.4789,2.4777,2.4801,2.4787,2.4811,2.4804,2.4856,2.4845,2.4854,2.4852,2.4893,2.4889,2.5026,2.5043,2.4914,2.4915,2.4917,0,2.4743,2.4772,2.4772,2.4786,2.4789,2.4812,2.4824,2.4804,2.4817,2.4826,2.4849,2.487,2.4886,2.4926,2.492,2.4938,2.4928,2.4974,2.4931,2.4936,2.493,2.4929,2.4932,2.4984,2.4985,2.4987,2.4988,0,2.4855,2.4847,2.4865,2.4881,2.4896,2.4908,2.4917,2.493,2.491,2.4927,2.4951,2.4963,2.4988,2.501,2.5025,2.5027,2.5004,2.5001,2.5011,2.5019,2.5024,2.5023,2.488,2.4998,2.4997,2.4996,2.4996,2.4995,2.4939,2.4963,2.4967,2.4988,2.4992,2.5002,2.5024,2.5018,2.5037,2.5056,2.5042,2.5071,2.5075,2.5094,2.5098,2.512,2.5102,2.5117,2.5121,2.5125,2.5131,2.5019,2.5123,2.5123,2.5122,2.5122,2.5122,0,2.505,2.505,2.507,2.5084,2.5101,2.5076,2.5085,2.5101,2.5126,2.5132,2.5148,2.5176,2.5197,2.5191,2.521,2.5229,2.5219,2.5235,2.5234,2.5235,2.5146,2.5136,2.5242,2.5242,2.5242,2.5242,2.5242,2.5242,2.511,2.515,2.5142,2.5184,2.5184,2.5211,2.5218,2.5227,2.5231,2.5263,2.528,2.5276,2.5278,2.5296,2.5314,2.5312,2.5321,2.534,2.5335,2.5253,2.5241,2.5229,2.522,2.5342,2.5342,2.5421,2.5422,2.5423]},{"header":{"parameterUnit":"m.s-1","parameterCategory":1,"la1":30.2991,"la2":30.254,"lo1":-89.0895,"lo2":-89.0444,"dy":0.0017,"dx":0.0017,"nx":28,"ny":28,"refTime":"2024-12-09T09:00:00:Z","depth":0,"parameterNumber":3,"parameterNumberName":"V-component_of_WINDS"},"data":[0,0,0,0,0,0,0,0,0,0,0,0,0,0,0,0,0,0,0,0,0,0,0,0,0,0,0,0,0,0,0,0,0,0,0,0,0,0,0,0,0,0,0,0,0,0,0,0,0,0,0,0,0,0,0,0,0,0,5.6017,5.6016,0,5.5974,5.5974,5.5973,5.5931,5.5931,5.593,5.593,5.5884,5.5884,5.5883,0,0,0,0,0,0,0,0,0,0,0,0,0,5.606,5.6059,5.6017,5.6016,5.6016,5.5974,5.5974,5.5973,5.5932,5.5931,5.593,5.593,5.5885,5.5884,5.5883,0,0,0,0,0,0,0,0,0,0,0,0,0,5.6031,5.6059,5.6017,5.599,5.5987,5.5974,5.5974,5.5973,5.5932,5.5931,5.593,5.5929,5.5885,5.5884,5.5883,5.5893,0,0,5.588,5.5879,0,0,0,0,0,0,0,0,5.6033,5.603,5.5994,5.5992,5.5989,5.5957,5.5972,5.5946,5.5932,5.5953,5.593,5.5929,5.5909,5.5906,5.59,5.589,5.5888,5.588,5.5879,5.5878,5.5878,0,0,0,0,0,0,0,5.6035,5.6031,5.6,5.5994,5.599,5.5979,5.5974,5.5967,5.5936,5.5951,5.5948,5.5943,5.5907,5.5901,5.5898,5.5888,5.588,5.5879,5.5878,5.5878,5.5882,5.5883,0,0,0,0,0,0,5.6041,5.6033,5.6001,5.5998,5.6009,5.5979,5.5974,5.5968,5.5936,5.593,5.5944,5.5942,5.5903,5.59,5.5897,5.5905,5.5878,5.5877,5.5877,5.5881,5.5882,5.5883,0,0,0,0,0,0,5.6042,5.6039,5.6003,5.6015,5.601,5.5979,5.5973,5.5968,5.5961,5.5931,5.5925,5.5943,5.5902,5.5898,5.5894,5.5903,5.5877,5.5876,5.588,5.5882,5.5883,5.5922,0,0,0,0,0,0,5.6044,5.604,5.6044,5.6015,5.6009,5.6001,5.5974,5.5967,5.596,5.5956,5.5929,5.5923,5.5901,5.5895,5.5893,5.5901,5.5875,5.588,5.5881,5.5882,5.592,5.5924,5.5928,0,0,0,0,0,5.6046,5.6056,5.6044,5.604,5.6014,5.6002,5.5998,5.5974,5.5961,5.5964,5.5944,5.5924,5.5902,5.5895,5.5892,5.59,5.5879,5.5881,5.5882,5.5918,5.5923,5.5928,0,0,0,0,0,0,5.6086,5.6052,5.6038,5.604,5.6024,5.5995,5.5999,5.5981,5.5968,5.5965,5.5934,5.5928,5.5927,5.5913,5.5906,5.5906,5.5888,5.5889,5.5916,5.5921,5.5925,5.5928,5.5874,0,0,0,0,0,5.6095,5.6089,5.606,5.6064,5.6057,5.6029,5.6023,5.6006,5.5988,5.5981,5.5961,5.5943,5.5932,5.5926,5.5914,5.5917,5.591,5.5921,5.5925,5.5929,5.593,5.5929,5.5933,5.5889,5.5889,5.5889,0,0,5.6114,5.6095,5.6093,5.6072,5.6057,5.6051,5.6024,5.6019,5.6013,5.598,5.5974,5.5959,5.5937,5.5936,5.5935,5.5924,5.5941,5.5931,5.5934,5.5933,5.5931,5.5936,5.5939,5.589,5.589,5.5889,0,0,5.6145,5.613,5.6132,5.6118,5.6097,5.6078,5.6078,5.6052,5.604,5.6034,5.6008,5.6001,5.5983,5.5969,5.5959,5.5983,5.5964,5.598,5.6002,5.6002,5.6005,5.6008,5.6016,5.6019,5.5981,5.5981,5.5982,0,5.6171,5.6161,5.6135,5.6131,5.6122,5.6091,5.6092,5.608,5.6056,5.605,5.6039,5.6015,5.5998,5.5993,5.5999,5.5992,5.5991,5.5983,5.6007,5.601,5.6012,5.6019,5.6022,5.5984,5.5983,5.5983,5.5983,0,5.6193,5.6187,5.6191,5.6168,5.616,5.6158,5.6131,5.6125,5.6108,5.609,5.6084,5.6063,5.6046,5.6043,5.6026,5.6035,5.6029,5.6013,5.5993,5.6019,5.6025,5.6027,5.5987,5.5986,5.5985,5.5985,0,0,5.6248,5.6212,5.6213,5.6202,5.6176,5.617,5.6167,5.6151,5.6146,5.613,5.6125,5.611,5.6095,5.6084,5.6065,5.6065,5.6084,5.6048,5.6047,5.6055,5.609,5.6102,5.6106,5.6071,5.6071,5.6071,5.6092,0,5.6274,5.6267,5.6243,5.6243,5.6236,5.6206,5.6203,5.6186,5.6169,5.616,5.6141,5.613,5.6111,5.6104,5.6103,5.6082,5.609,5.608,5.6065,5.6065,5.6071,5.6109,5.6122,5.6143,5.6094,5.6095,5.6095,0,5.6304,5.629,5.6289,5.6262,5.6259,5.6256,5.6239,5.6231,5.621,5.6198,5.6185,5.6164,5.6157,5.6139,5.6129,5.6122,5.6115,5.6103,5.6103,5.6101,5.6081,5.6107,5.6149,5.6152,5.6098,5.6098,5.6098,0,5.6343,5.6324,5.6321,5.6313,5.6282,5.6281,5.6267,5.6246,5.6238,5.6222,5.6216,5.62,5.6191,5.6178,5.6152,5.6142,5.6144,5.6124,5.6133,5.6133,5.6134,5.6135,5.6175,5.613,5.613,5.613,5.613,0,5.6374,5.6374,5.6338,5.6336,5.6336,5.6308,5.6307,5.6291,5.6272,5.6266,5.6239,5.6233,5.62,5.619,5.6169,5.6163,5.6159,5.6148,5.6143,5.615,5.6152,5.6145,5.6142,5.6131,5.6131,5.6131,5.6131,0,5.6418,5.6394,5.6388,5.6359,5.6352,5.6353,5.6327,5.6323,5.6305,5.6297,5.6293,5.6263,5.625,5.6223,5.6202,5.6188,5.6186,5.6177,5.6194,5.619,5.62,5.6199,5.6236,5.6239,5.6194,5.6194,5.6195,0,5.6439,5.6438,5.641,5.6404,5.6392,5.6383,5.6374,5.6346,5.6338,5.6314,5.6313,5.6297,5.6284,5.6263,5.6239,5.6222,5.6212,5.6226,5.6209,5.6217,5.6211,5.6211,5.6211,5.623,5.6231,5.6231,5.6231,0,5.6478,5.6466,5.6455,5.644,5.643,5.6417,5.6401,5.6398,5.6366,5.6358,5.6344,5.6334,5.6312,5.6297,5.6276,5.6261,5.6241,5.6237,5.6238,5.6246,5.6255,5.6249,5.6203,5.6236,5.6236,5.6235,5.6235,5.6235,5.6511,5.6509,5.6488,5.6476,5.6462,5.6448,5.6443,5.6424,5.6413,5.6394,5.6377,5.6365,5.6343,5.6314,5.63,5.6289,5.6279,5.628,5.6281,5.6281,5.6284,5.6257,5.6285,5.6285,5.6284,5.6284,5.6284,0,5.6548,5.6534,5.6523,5.6503,5.6493,5.6476,5.6458,5.6451,5.644,5.6422,5.6409,5.6393,5.6378,5.6352,5.6334,5.633,5.632,5.6326,5.6326,5.6323,5.6294,5.6295,5.6335,5.6335,5.6335,5.6335,5.6335,5.6335,5.6567,5.6562,5.6548,5.6536,5.652,5.6509,5.65,5.6487,5.6472,5.6455,5.6443,5.6427,5.6405,5.6385,5.637,5.6362,5.6357,5.6366,5.6356,5.633,5.6325,5.632,5.6321,5.6365,5.6365,5.6384,5.6385,5.6385]}]]